Theta_e
341 344 345 346 349 348 352 351 349 349 349 349 347 348 347 347 347 355 347 348 347 350 348 339 335 334 335 332 328 327 328 327 327 326 325 326 326 326 326 327 327 327 326 326 325 324 325 325 326
345 345 346 344 346 348 351 349 350 348 348 349 349 348 347 345 350 349 349 346 347 349 345 340 334 333 331 329 328 328 327 327 327 327 328 327 327 326 326 324 321 319 317 316 316 316 316 317 319
344 345 345 344 346 351 348 345 344 345 349 347 346 348 346 346 348 350 349 345 347 347 345 343 333 331 329 328 329 327 328 329 328 326 325 324 321 319 316 314 313 313 312 312 312 311 311 311 312
345 344 344 344 343 345 341 343 343 344 347 348 346 343 346 345 346 349 347 347 346 347 345 339 331 329 329 329 328 330 328 326 325 322 318 316 316 316 315 314 316 318 317 316 315 315 314 313 311
345 346 344 341 341 342 342 342 343 344 343 344 345 341 344 347 340 342 343 347 347 345 343 336 330 330 330 331 331 327 325 323 318 317 318 318 317 316 315 319 320 320 318 318 317 316 314 312 312
346 346 344 345 344 342 342 341 341 341 341 344 344 343 344 345 345 346 348 347 347 344 342 344 330 331 333 332 328 326 323 318 318 320 320 319 319 321 320 321 321 321 321 321 321 320 319 316 314
343 346 345 344 343 342 342 341 341 341 341 341 344 342 346 347 346 345 347 347 346 345 343 344 341 336 333 331 327 324 319 319 321 322 322 323 323 322 322 323 323 323 323 323 322 322 322 321 320
342 344 345 343 343 342 340 342 342 341 342 345 345 342 343 347 346 346 346 346 345 344 343 345 346 343 343 336 326 322 319 322 323 324 324 324 324 324 324 324 326 325 324 324 324 323 323 323 322
341 345 345 343 342 340 339 341 341 342 343 344 345 344 347 347 346 346 346 345 345 343 342 343 344 344 341 338 334 319 321 323 325 326 325 325 330 330 330 328 325 325 323 323 323 322 322 323 324
341 345 344 341 341 341 340 340 340 341 342 344 345 348 347 347 346 345 345 345 344 343 343 343 344 344 340 337 336 333 333 332 331 331 327 332 331 329 326 326 323 324 324 325 325 325 325 325 326
341 344 341 341 340 340 340 340 340 340 340 339 341 344 349 348 347 346 345 345 344 344 344 343 345 343 336 337 335 333 333 332 331 327 329 330 331 331 330 330 330 330 330 329 329 328 328 327 327
340 339 340 339 340 339 338 339 339 339 341 344 342 341 350 348 348 347 345 344 344 345 345 344 344 341 337 337 335 331 332 325 327 333 328 328 331 332 331 331 330 330 330 330 329 329 329 328 328
339 338 338 339 337 338 336 337 338 340 344 344 343 343 347 348 348 348 346 345 345 346 346 345 343 337 338 337 335 331 330 325 328 328 328 328 331 332 333 332 332 332 331 331 330 326 327 329 327
334 336 337 337 336 337 336 336 339 342 346 347 347 347 348 349 349 348 347 346 346 346 346 346 344 337 337 336 335 329 325 323 328 329 327 327 331 332 332 332 333 333 332 330 330 330 328 328 327
334 337 336 335 334 334 334 337 339 340 345 347 347 347 348 348 348 348 346 346 347 346 346 346 344 341 338 337 337 336 334 331 330 324 329 328 327 328 328 329 333 333 333 330 330 329 329 326 325
335 336 337 335 333 334 335 337 340 341 341 345 346 346 347 348 347 346 346 346 346 345 343 344 344 342 340 339 338 337 335 335 333 322 323 328 327 329 329 329 331 331 330 328 330 329 328 327 326
336 336 335 335 333 334 335 336 340 341 341 342 344 346 346 347 347 347 345 344 344 344 343 344 342 340 338 339 338 338 338 337 334 327 329 331 330 330 330 331 331 330 330 329 328 326 326 325 326
336 335 334 334 335 334 334 335 338 341 341 342 344 344 344 344 344 344 343 342 342 342 340 341 342 339 336 336 337 337 336 335 333 331 330 330 330 330 327 328 329 328 327 327 327 326 326 325 325
333 333 334 333 333 333 333 334 334 340 342 341 342 343 342 341 340 341 341 342 343 341 341 340 332 332 334 338 338 338 337 334 333 330 330 330 329 326 326 325 325 325 324 324 324 323 323 323 322
334 333 333 332 333 334 333 333 334 338 338 337 339 342 339 338 340 343 343 342 342 340 338 338 332 333 336 337 336 336 336 334 331 330 330 327 323 324 324 322 323 321 319 319 319 318 317 315 316
334 334 333 332 332 332 334 336 336 339 338 337 337 338 338 338 344 342 342 342 341 340 339 338 336 335 335 333 333 332 332 332 333 331 329 325 321 322 322 319 316 316 316 314 314 313 313 312 312
334 332 331 331 332 332 334 334 334 337 340 339 337 338 338 338 343 341 341 341 340 339 338 337 335 334 333 333 333 331 334 332 329 327 327 325 319 318 317 315 313 313 310 312 312 312 312 311 310
330 330 330 331 331 332 333 336 335 338 338 338 338 339 338 339 342 340 341 340 339 339 339 337 336 335 335 331 331 333 330 327 327 326 322 318 318 317 316 312 312 308 312 312 312 312 311 310 309
331 331 330 331 332 334 334 335 334 334 337 336 337 340 338 340 342 340 341 338 336 339 339 338 335 333 331 330 326 324 325 319 322 320 319 318 316 314 314 310 311 312 312 312 312 312 311 309 309
331 333 334 334 335 334 336 336 336 335 336 335 338 340 340 342 341 340 340 339 339 339 339 337 336 333 328 326 324 323 321 321 323 320 317 314 312 312 314 310 311 311 312 312 312 312 311 310 309
334 334 335 337 336 334 332 335 337 337 336 335 338 340 341 341 339 338 339 336 335 335 335 332 328 326 325 324 324 320 318 322 319 317 312 312 313 313 312 312 310 310 312 312 312 312 310 310 310
333 335 335 335 333 337 334 336 336 337 337 337 339 339 340 339 338 334 332 331 331 330 329 325 323 324 325 325 325 320 319 319 316 310 308 314 313 314 313 311 310 312 313 313 312 312 312 311 310
335 335 334 334 337 337 333 334 338 336 335 337 338 339 339 338 333 330 329 329 328 327 325 326 325 325 324 323 324 324 321 318 314 312 315 314 314 314 313 310 311 312 313 314 313 313 312 312 311
335 336 336 337 335 337 337 334 336 335 335 336 337 338 338 337 331 328 326 327 327 326 325 326 325 323 323 324 324 322 320 317 313 314 315 315 313 315 313 311 312 312 313 314 314 314 313 314 314
336 337 337 339 338 337 341 338 336 336 335 335 336 339 338 336 330 328 325 325 326 326 325 325 326 324 324 324 323 321 317 314 313 315 316 315 315 315 312 312 312 312 313 314 314 314 313 314 314
Wind_Speed
1 3 2 3 6 3 5 5 1 6 6 2 5 1 5 3 6 3 6 12 19 21 20 20 16 15 13 13 11 9 7 7 6 5 4 4 4 4 3 3 3 4 5 6 7 7 7 8 9
3 2 3 5 4 5 6 4 4 5 6 7 6 3 3 6 3 3 8 15 21 23 20 19 18 16 14 12 10 8 7 6 5 5 5 4 3 3 3 4 5 6 7 8 9 10 11 11 11
2 3 6 1 2 6 8 5 7 8 7 2 3 2 3 4 2 5 4 17 22 20 19 18 18 16 13 11 9 9 8 7 6 5 4 4 3 3 4 5 5 6 6 6 7 8 9 10 11
4 3 4 3 12 8 10 7 6 8 5 2 3 2 2 1 2 4 10 18 21 18 17 17 16 14 12 10 9 8 7 6 5 4 3 3 2 3 3 2 3 4 5 6 7 7 8 8 8
4 4 6 11 12 8 4 4 4 6 2 1 0 6 3 1 2 7 12 19 18 16 14 15 15 13 10 9 8 7 5 4 3 3 3 2 1 1 1 1 3 4 4 5 6 7 7 7 6
4 3 6 10 9 6 3 4 2 2 1 1 2 2 4 2 6 10 14 17 15 15 14 13 14 12 11 9 8 6 5 5 4 3 2 1 1 1 1 3 4 4 5 6 7 8 8 7 6
5 6 9 4 8 9 4 2 3 1 2 2 2 2 3 5 8 11 13 15 15 14 14 13 13 13 11 10 8 8 7 6 5 2 1 2 1 1 2 3 4 4 4 4 5 6 7 8 6
6 4 6 3 2 10 4 4 2 4 1 2 3 2 5 8 12 14 13 15 14 14 13 12 12 11 9 8 9 8 7 6 4 2 1 2 2 3 3 4 5 4 4 5 6 6 6 7 7
3 6 4 7 2 6 3 4 1 1 3 6 5 4 1 11 15 15 14 14 14 14 14 13 13 12 11 9 8 8 8 7 4 2 2 2 2 3 4 6 5 4 5 6 7 8 10 10 11
5 4 6 4 5 3 3 2 0 4 6 9 8 4 5 13 16 16 17 17 16 14 14 14 14 13 13 10 8 8 6 4 5 4 3 2 3 3 1 4 3 4 6 8 9 11 13 10 9
2 6 4 4 3 5 7 6 6 8 7 4 6 8 9 13 15 15 15 14 13 13 14 14 14 15 13 9 9 9 8 8 6 6 4 2 3 4 5 5 7 8 11 9 11 11 11 11 12
4 2 3 2 1 5 8 7 6 7 8 7 6 4 11 12 13 14 13 12 12 13 13 13 14 16 16 11 11 10 10 10 8 5 6 5 4 7 7 8 9 11 11 12 11 12 13 14 15
5 4 4 4 8 7 8 6 7 2 5 5 4 4 8 10 11 11 11 11 12 13 13 12 13 16 14 16 11 11 12 10 10 8 9 9 8 9 9 11 12 13 15 16 16 18 21 17 18
7 8 4 2 2 3 9 2 4 3 3 2 1 3 6 8 9 9 11 12 12 11 11 12 14 17 17 17 17 13 13 15 14 14 12 12 10 11 13 15 17 18 19 25 22 23 22 22 19
5 6 4 4 4 4 9 6 0 2 2 0 2 3 5 6 8 8 8 9 8 9 10 12 14 18 18 20 20 20 23 18 20 17 14 15 16 19 20 22 19 20 23 24 24 23 23 28 27
5 3 4 5 3 2 4 3 3 2 4 3 2 3 5 6 6 5 6 7 6 6 10 13 13 17 15 16 20 20 23 16 13 18 18 19 19 18 20 21 18 18 19 21 22 24 26 25 26
9 8 4 4 2 3 5 9 3 3 4 6 5 5 5 5 5 4 4 5 6 7 6 4 6 7 10 10 12 14 15 9 9 12 14 17 17 17 19 14 15 18 19 22 26 26 25 25 23
7 9 8 8 4 6 8 9 3 6 7 6 6 6 4 5 4 3 3 4 3 3 3 5 7 6 3 4 5 5 5 6 7 8 9 11 12 15 15 13 14 15 16 19 21 22 22 25 25
9 10 10 5 3 8 13 9 8 11 11 11 10 9 6 6 5 4 1 3 4 4 5 8 11 13 9 5 3 5 5 4 3 6 10 12 9 8 8 8 11 13 14 17 16 18 20 21 23
11 11 11 6 1 7 16 15 15 12 12 11 11 10 9 10 8 7 7 6 7 7 9 11 13 10 8 4 4 4 5 4 5 8 6 5 6 7 7 11 9 13 14 16 16 18 22 24 25
16 14 11 16 17 14 15 16 10 8 12 8 7 9 9 11 10 9 9 9 9 8 9 10 8 5 5 4 1 1 1 2 1 1 1 4 8 8 9 12 13 14 14 17 19 19 20 25 25
17 13 17 14 16 14 4 14 16 5 10 13 13 12 12 11 11 10 10 10 8 8 8 8 5 3 1 4 1 3 2 2 3 2 2 4 8 9 9 13 15 15 18 15 17 18 19 21 25
16 15 15 15 17 18 16 10 11 5 7 12 12 13 13 13 12 12 10 9 9 7 7 6 4 2 2 1 2 4 5 3 1 1 4 5 8 8 8 11 14 18 14 15 16 18 19 19 21
12 15 18 17 15 13 10 7 11 10 11 11 10 11 14 15 13 12 10 8 7 7 6 5 4 2 1 2 7 6 2 0 1 2 2 4 6 8 10 16 16 13 14 16 18 18 18 18 18
7 12 12 12 11 9 5 7 12 13 8 7 10 13 15 15 13 11 9 7 8 7 6 5 4 3 6 8 5 3 2 2 2 4 5 7 6 8 10 17 15 13 15 17 17 17 17 17 17
11 9 10 17 13 16 17 10 5 4 3 3 5 14 14 14 12 11 8 7 6 7 7 6 5 6 6 5 3 2 6 3 5 8 8 5 6 8 13 13 13 15 15 15 17 15 15 15 15
7 9 7 11 18 10 13 7 8 4 2 3 9 12 13 14 14 11 8 8 8 7 8 7 6 6 4 2 0 5 8 7 9 13 10 8 11 11 10 13 12 13 12 14 16 15 14 14 13
12 5 10 8 10 14 12 9 8 3 6 5 9 11 13 15 15 13 9 10 10 9 8 7 6 4 2 2 4 5 7 8 11 6 8 11 14 13 12 13 11 12 12 12 14 13 13 13 11
7 11 6 6 7 14 14 6 2 5 9 8 8 13 15 18 16 12 10 11 10 9 7 7 5 4 5 5 6 7 6 9 9 8 9 11 14 13 13 12 12 12 12 12 12 12 12 13 12
9 14 15 10 14 8 12 11 6 6 6 6 3 11 16 19 16 11 10 11 10 8 7 6 7 8 8 8 7 8 11 14 10 9 11 13 13 13 13 12 13 13 13 13 13 13 12 14 14
Wind_Direction
325 4 285 269 232 211 112 99 82 124 148 96 139 246 7 356 352 33 165 174 168 168 174 177 179 180 183 185 185 185 183 185 188 190 202 202 203 218 232 244 254 269 276 276 275 276 276 275 272
237 274 269 244 244 171 98 115 127 67 96 119 147 192 224 75 68 136 144 182 171 170 173 178 181 186 188 189 189 188 190 188 185 182 192 206 214 232 252 275 286 291 293 292 290 288 286 282 280
339 285 269 223 169 85 101 106 96 104 123 127 167 254 360 59 97 155 183 172 166 170 174 180 185 190 195 192 190 188 181 182 184 187 201 220 241 269 285 298 304 307 308 302 298 296 295 290 286
312 252 225 103 102 95 81 104 113 141 168 245 4 133 78 120 91 153 155 157 164 170 171 190 187 191 192 192 189 192 189 188 190 202 208 224 250 269 291 304 314 324 327 325 326 321 317 314 312
314 263 133 111 91 101 105 100 151 130 101 108 289 66 40 115 164 154 155 158 168 168 170 186 186 192 189 186 193 192 189 197 191 183 189 196 212 252 205 11 4 6 10 9 4 355 345 333 320
226 243 150 103 96 107 124 168 156 180 155 92 269 341 57 159 141 148 152 162 169 170 171 188 190 189 185 192 194 194 193 190 185 177 168 128 56 16 9 4 6 13 15 19 17 12 4 1 351
327 259 76 115 102 113 74 180 210 145 216 158 281 313 91 163 165 156 158 166 173 179 176 186 187 189 192 193 196 198 194 186 178 154 58 21 360 11 352 344 351 357 353 357 4 10 5 3 349
305 272 170 101 51 88 78 209 282 244 149 137 208 268 110 187 170 164 168 173 178 184 184 184 190 194 193 207 201 201 193 184 166 150 137 52 27 3 353 332 316 308 313 331 334 336 338 333 330
303 229 158 112 180 79 81 239 181 268 216 226 215 261 163 160 168 169 176 180 185 188 191 190 198 199 189 202 219 205 198 187 175 141 71 56 85 301 303 288 280 299 318 307 330 328 326 322 317
274 285 69 27 56 21 152 300 181 258 212 231 217 221 182 173 175 181 186 188 189 190 195 198 201 200 192 191 195 186 202 196 185 180 184 146 220 240 286 279 299 283 297 307 318 318 319 320 315
75 17 58 79 356 299 304 280 257 272 283 280 273 226 189 184 188 193 198 195 193 195 200 202 212 207 197 199 203 193 193 201 206 206 193 224 229 275 289 297 307 305 304 317 302 308 306 289 295
291 92 309 13 306 314 303 313 273 284 343 323 312 282 195 195 200 204 204 200 197 199 206 206 207 221 202 208 207 207 208 209 204 221 236 242 280 281 285 287 287 297 305 297 304 296 295 291 289
256 330 316 258 289 285 311 275 317 328 334 326 307 213 202 202 208 210 204 202 203 206 210 208 208 226 218 213 213 208 215 229 232 232 259 262 261 279 282 281 286 288 293 288 278 289 280 285 285
337 315 302 274 273 280 304 327 284 99 340 360 84 157 182 195 198 197 201 203 206 213 218 217 224 232 229 229 221 236 237 237 240 246 247 266 271 277 282 288 289 289 285 278 283 283 281 275 275
296 292 172 124 54 14 321 225 304 349 338 289 132 143 152 172 184 193 200 204 216 231 235 245 245 242 241 247 247 240 239 240 248 241 251 261 275 280 285 286 290 289 287 290 286 280 278 276 274
269 241 253 93 304 92 288 346 107 309 286 253 189 166 156 164 172 182 193 204 230 249 265 269 244 239 238 249 254 255 245 249 250 245 253 266 281 285 293 283 284 282 294 303 296 291 284 282 279
212 273 251 266 224 306 254 313 109 265 245 244 226 193 167 163 162 180 204 231 251 274 266 243 189 209 232 257 264 260 260 242 237 251 261 281 282 293 296 289 297 300 303 301 297 297 292 288 283
268 314 310 264 115 246 262 265 230 229 231 228 216 203 199 178 160 188 239 241 248 206 196 164 152 163 160 240 255 225 182 206 254 267 291 297 293 299 301 306 305 308 309 305 304 306 301 296 289
306 297 293 294 314 272 300 298 283 229 226 228 217 210 206 178 157 129 170 139 133 155 160 142 135 127 118 106 138 187 189 199 222 285 291 301 305 314 329 321 318 322 321 317 321 317 312 303 299
279 282 280 294 258 290 302 304 289 234 247 243 215 197 184 167 152 124 108 115 123 124 130 136 142 121 99 86 143 169 182 214 284 308 304 309 326 332 337 324 333 319 325 319 313 318 313 304 302
261 270 286 297 313 276 260 274 235 234 242 238 219 180 175 171 155 133 116 116 119 114 122 136 136 119 86 47 82 145 223 281 108 82 9 326 325 331 331 327 327 327 330 316 319 315 315 309 303
270 276 291 301 287 293 327 291 298 221 227 221 215 205 193 169 154 136 127 118 125 122 130 141 155 180 343 17 222 212 213 125 159 141 289 319 328 328 330 332 330 332 332 321 320 317 317 313 306
298 296 301 298 291 292 285 243 282 202 250 242 216 208 196 177 157 139 132 127 133 138 145 157 170 228 298 276 156 113 134 112 115 331 340 326 329 341 340 341 335 331 336 325 324 324 319 322 314
290 277 270 262 260 258 294 321 292 310 356 320 177 193 174 166 152 139 138 138 143 143 149 153 160 219 206 147 128 132 116 98 212 274 322 326 332 329 322 336 337 338 334 329 333 326 327 323 322
246 257 271 265 248 283 168 287 298 332 344 305 175 176 165 157 150 145 144 144 136 146 156 153 150 143 135 130 126 113 60 19 354 360 321 342 328 321 318 336 336 340 336 336 332 330 335 328 320
300 306 290 299 302 312 318 280 9 19 8 334 156 158 156 154 148 143 143 140 148 155 157 151 148 144 139 140 126 30 360 341 336 325 325 327 333 328 324 334 335 337 339 336 339 340 331 327 327
290 252 350 301 271 250 276 297 243 167 198 208 171 170 158 154 145 132 147 150 149 153 156 157 154 151 145 141 289 305 312 312 311 323 333 327 336 322 316 330 330 331 328 335 342 340 335 326 332
253 329 277 261 287 289 297 280 292 166 11 189 208 195 168 156 143 143 156 152 150 148 157 155 162 175 201 242 266 279 304 319 323 313 320 324 330 328 324 326 323 325 321 324 329 336 331 332 329
245 245 230 300 295 291 290 304 71 10 352 337 201 202 176 161 152 155 150 158 163 165 166 182 191 223 257 263 269 286 291 316 312 299 308 317 321 323 321 322 321 322 321 320 320 327 330 323 323
284 291 303 288 278 261 288 286 84 62 31 30 156 180 176 167 168 155 153 161 168 175 183 207 229 246 264 265 262 276 296 318 306 296 302 310 313 320 319 315 317 319 319 318 317 319 317 317 311